Theta_e
345 347 347 343 343 349 350 352 359 362 363 358 356 362 363 364 366 369 369 367 368 365 365 361 352 351 357 360 358 357 356 357 358 356 355 352 348 349 349 349 349 350 351 351 350 351 351 350 348 348 349 349 349 350 350 349 349 349 349 349 349 350 350 351 351 351 351 352 352 352 353 352 352 353 353 353 349 348 349 351 352 352 351 350 349 348 349 346 343 346 350 351 351 351 350 350 350
346 347 345 342 345 351 355 356 360 361 359 356 358 365 366 367 368 371 371 367 368 365 364 355 352 359 359 358 358 358 357 354 354 353 352 350 350 350 348 349 349 349 350 350 349 350 351 349 347 348 349 350 350 350 351 349 349 348 349 349 350 350 351 351 352 351 351 352 352 353 353 351 352 353 352 350 347 348 351 353 352 351 350 349 348 349 350 349 347 348 351 351 351 351 351 351 351
346 346 344 345 349 352 357 358 360 358 356 355 360 369 369 370 370 370 370 366 365 361 360 355 357 360 356 359 360 361 359 351 349 349 351 350 351 350 349 349 347 349 350 349 348 349 350 349 347 350 350 351 351 350 351 350 350 349 350 350 350 352 352 352 351 351 352 353 353 352 352 351 353 353 350 347 348 351 353 351 351 350 349 349 348 348 349 349 349 349 350 351 351 351 351 351 351
346 344 344 349 352 355 360 362 363 358 355 354 357 369 371 372 370 368 369 364 360 357 357 357 359 357 359 366 360 360 357 350 349 349 351 350 350 350 349 349 348 349 350 349 349 348 348 348 348 350 350 350 350 350 350 350 350 350 352 351 352 352 352 351 351 352 353 354 353 352 351 352 353 351 347 347 350 352 351 350 351 350 349 349 348 349 348 348 349 349 349 351 352 351 351 350 351
344 343 346 352 358 361 364 366 366 359 359 360 359 371 373 370 370 367 365 359 357 358 357 357 360 355 357 359 355 361 357 350 349 349 350 349 349 350 349 349 347 350 351 350 349 347 346 347 348 349 350 350 350 350 350 351 351 351 352 352 352 352 352 351 351 353 353 353 353 352 351 353 353 350 347 349 350 351 349 349 351 350 350 349 348 349 348 348 349 349 350 351 351 351 351 350 350
344 345 349 352 357 359 364 364 361 359 362 366 366 375 373 368 370 365 360 358 356 357 356 358 359 357 356 353 351 355 352 350 350 348 350 350 350 349 350 349 348 349 351 350 348 347 346 346 348 349 349 350 350 350 350 351 351 351 351 351 352 353 352 351 352 353 352 353 352 351 351 352 352 349 348 350 350 350 349 349 350 350 350 349 349 349 348 348 349 349 348 349 350 350 351 350 351
346 351 353 356 359 359 365 362 359 361 363 367 369 374 369 365 368 362 360 359 357 357 357 357 354 359 359 353 353 351 349 350 349 349 350 350 350 350 350 348 348 351 352 351 346 345 346 346 348 349 349 350 350 350 351 351 351 350 350 351 352 352 352 353 353 352 351 352 351 350 351 351 352 351 350 351 351 351 351 351 350 350 350 349 350 350 350 349 349 350 347 349 351 349 350 351 351
350 355 357 361 365 364 365 361 361 365 366 366 366 369 365 365 369 363 361 361 361 359 357 355 353 362 359 352 356 353 350 349 348 349 350 350 350 350 350 348 349 351 353 350 345 344 345 346 349 349 350 351 349 350 351 351 350 350 350 351 351 352 352 352 353 352 352 351 351 351 351 351 351 351 351 350 351 351 351 351 351 351 350 350 351 350 350 349 349 349 347 346 350 349 350 351 350
352 356 360 363 367 364 361 360 363 368 369 366 363 365 366 369 370 364 361 361 359 358 356 354 355 364 359 355 358 353 351 350 349 350 350 351 351 350 350 349 350 351 352 349 345 345 346 347 348 349 350 349 349 350 350 350 349 349 350 350 351 352 352 351 352 353 353 352 352 352 351 351 352 350 351 350 350 351 351 350 350 350 350 350 350 350 349 349 348 349 348 344 346 348 350 350 350
356 357 361 366 365 359 357 359 365 371 370 364 363 366 368 368 370 370 365 358 356 358 357 355 358 361 358 357 357 353 352 350 350 351 351 351 350 350 350 350 350 350 351 349 346 346 347 347 348 349 349 349 349 349 349 349 350 349 350 350 351 351 352 352 352 353 352 353 353 352 352 353 352 351 351 351 350 348 349 349 349 349 350 349 348 349 348 348 348 349 349 343 343 348 349 349 350
360 359 361 365 361 356 358 360 364 372 369 362 365 366 366 366 369 372 368 360 357 359 357 356 359 356 356 357 356 354 352 350 351 352 352 351 350 350 350 350 350 349 351 349 349 348 347 347 348 349 349 349 349 349 350 350 350 349 350 351 351 350 351 351 352 352 351 352 351 351 352 352 352 351 352 351 350 349 348 349 349 349 349 348 348 349 349 348 348 349 349 345 345 349 349 349 349
361 363 361 364 360 358 361 360 363 368 368 362 365 365 362 364 368 369 365 361 359 358 357 358 358 355 357 358 357 353 351 351 351 352 352 352 351 350 350 351 350 350 351 351 350 347 347 348 348 349 348 349 348 348 350 350 351 350 350 350 350 351 351 351 351 352 350 350 351 351 351 351 351 351 352 351 350 349 349 349 349 349 349 349 349 349 349 349 349 349 349 346 347 349 349 349 349
361 363 362 364 362 365 363 363 367 364 368 366 363 363 359 363 368 368 363 359 359 360 358 355 354 354 357 357 356 353 351 351 351 352 352 351 351 351 351 351 351 351 352 352 349 348 348 348 349 349 348 349 349 348 350 350 350 349 349 350 350 351 351 351 351 350 350 350 351 351 350 350 351 352 353 351 350 349 347 348 347 346 347 349 349 349 349 349 349 349 348 346 347 349 350 349 349
361 362 361 365 365 369 363 364 367 360 366 367 362 362 361 364 365 364 360 358 360 359 356 352 351 355 357 357 357 353 352 351 351 352 351 352 352 351 352 352 352 352 353 352 349 349 349 349 349 348 348 349 348 349 350 350 351 350 350 350 350 350 349 349 349 349 350 351 351 352 351 350 351 351 351 351 351 350 347 346 345 345 346 348 350 349 349 350 350 349 348 346 345 347 349 348 347
359 361 361 366 365 366 365 364 366 360 363 363 362 364 366 365 364 365 363 360 359 354 353 352 351 357 358 357 358 353 351 351 351 352 352 352 352 352 353 352 353 353 354 352 350 350 349 349 349 348 348 348 349 349 349 350 351 351 351 350 349 348 347 347 348 349 350 350 350 351 351 350 349 349 350 350 352 352 351 349 348 347 346 347 348 349 349 349 351 350 349 348 345 345 347 346 345
357 361 364 367 361 362 366 364 362 361 363 363 364 367 367 364 362 367 366 362 357 351 353 353 351 356 355 354 354 351 351 351 351 352 352 353 353 353 353 353 353 353 354 352 350 350 349 349 349 348 349 348 349 349 349 351 351 351 351 349 348 347 345 345 347 349 349 349 348 350 350 347 347 348 349 351 352 351 350 350 350 350 348 347 348 348 349 350 351 351 350 349 346 345 346 346 346
357 363 367 365 360 361 367 363 359 361 365 365 366 365 366 364 358 360 361 362 359 353 354 354 351 352 352 352 352 351 351 351 351 352 353 353 353 353 354 354 354 353 354 353 351 350 349 349 349 348 348 349 349 349 349 350 351 350 350 349 348 346 345 345 347 349 350 350 349 350 349 345 347 349 349 350 350 349 349 349 349 348 348 347 346 345 346 347 350 350 350 349 346 345 346 346 348
360 365 365 362 362 364 367 363 358 361 367 365 364 363 364 364 359 357 360 363 360 355 355 354 353 351 351 351 351 351 350 350 351 352 353 353 353 354 354 354 354 354 354 354 352 350 349 349 348 347 348 349 349 349 348 349 351 350 349 348 347 346 346 345 348 350 351 352 351 350 347 345 347 347 348 348 349 351 350 348 347 346 346 347 347 345 344 344 345 347 348 348 348 347 347 347 348
360 364 364 363 365 365 363 362 357 356 363 361 360 361 361 362 359 358 363 364 359 356 357 355 355 353 352 351 351 351 350 351 352 352 353 353 353 353 354 354 353 354 354 354 352 350 349 349 348 346 347 349 349 349 348 350 351 349 348 347 344 344 346 345 347 349 350 351 351 346 345 344 345 346 347 348 350 352 351 348 347 348 347 347 348 348 347 346 345 344 345 346 349 349 347 347 347
358 362 365 363 363 361 359 358 355 354 360 360 359 359 357 358 357 357 362 362 358 358 358 357 357 355 352 351 351 351 350 351 351 352 352 353 353 353 353 354 353 353 354 354 352 350 348 348 348 346 347 348 348 348 348 350 350 349 347 346 343 343 344 344 345 347 347 348 346 342 341 341 342 343 345 346 348 352 352 351 349 349 348 348 350 351 350 350 349 347 346 346 346 346 346 347 347
358 361 364 362 359 361 362 357 353 351 357 359 357 359 357 355 355 356 360 361 360 358 356 357 357 355 352 351 350 351 351 351 351 351 352 352 352 352 352 353 352 353 353 353 352 350 348 347 346 345 346 347 347 347 347 350 350 349 347 345 344 344 344 343 344 345 344 344 343 341 339 338 339 340 341 342 346 350 352 352 350 348 347 347 350 351 351 350 349 348 347 345 343 343 345 346 346
359 361 360 360 358 360 363 359 357 352 354 357 356 358 357 355 356 356 358 362 361 356 354 355 354 353 352 351 350 351 351 350 351 351 351 352 352 352 352 352 352 353 353 353 353 351 348 346 344 345 346 346 347 347 347 348 349 347 346 345 344 345 344 342 342 343 341 343 345 345 342 340 340 340 339 339 342 347 350 350 349 346 346 348 348 349 350 349 348 345 344 344 342 343 345 346 346
359 360 357 358 356 357 359 358 361 355 354 359 357 356 356 357 359 356 357 360 358 352 352 353 352 352 351 351 350 350 350 350 350 351 351 352 352 352 352 352 352 353 353 353 353 352 349 346 344 344 345 346 346 346 346 348 348 347 346 344 343 344 345 342 340 339 340 344 347 348 346 345 346 343 341 340 338 342 346 346 346 346 346 348 349 349 349 348 347 346 346 345 345 345 345 345 346
356 359 355 356 357 357 357 354 356 355 355 357 353 354 355 358 361 357 356 357 354 352 351 351 352 352 352 351 350 350 350 350 350 351 351 352 352 351 351 352 352 353 353 353 353 352 350 347 343 342 344 344 346 346 346 347 347 347 346 344 342 343 344 342 338 336 341 346 348 349 349 349 350 347 347 346 343 341 342 345 347 348 348 348 348 348 348 347 348 348 349 348 348 348 347 347 345
351 355 352 351 353 354 355 354 354 354 354 353 352 356 355 356 359 359 357 355 351 351 352 351 352 352 351 351 350 350 350 350 350 351 351 351 352 351 351 352 352 352 352 353 353 353 350 348 344 342 342 343 344 346 345 345 346 346 346 344 341 341 341 340 337 336 342 348 349 348 349 349 349 349 350 350 349 346 343 346 348 349 349 349 348 348 348 347 348 349 349 349 349 349 349 349 348
348 351 350 349 350 349 350 352 353 353 351 350 352 355 354 353 358 360 357 353 351 351 352 352 352 352 351 351 350 351 350 350 351 351 351 352 351 351 351 351 351 352 352 352 353 353 351 348 345 342 341 341 343 345 345 345 345 346 345 343 340 339 339 338 337 337 342 349 350 349 349 349 349 349 349 350 350 351 348 348 348 348 349 349 348 348 348 348 349 349 349 349 349 349 349 349 348
346 346 347 348 349 348 347 349 349 351 350 350 354 354 352 351 356 361 358 352 351 352 352 351 352 353 352 350 350 351 351 351 351 351 351 351 351 351 351 351 351 352 351 352 352 352 352 350 346 343 342 340 341 344 344 344 343 344 344 341 339 339 338 338 338 336 341 347 349 350 350 350 349 348 349 349 350 351 351 351 350 349 349 349 348 347 348 350 350 350 350 349 349 349 349 350 348
340 341 343 343 345 345 345 346 346 349 351 351 353 353 351 350 354 358 356 351 351 354 353 352 352 352 352 351 350 351 351 351 351 352 352 351 351 351 351 351 350 351 351 351 352 352 352 351 348 345 343 340 340 342 344 343 342 341 341 340 340 339 339 339 338 337 339 345 349 350 350 350 350 348 348 348 349 350 350 351 351 350 349 349 348 347 348 349 350 351 350 349 349 349 349 349 348
336 337 340 342 342 342 343 345 345 348 351 350 350 352 353 352 352 355 354 351 352 354 354 353 352 352 351 351 350 351 351 352 352 352 351 351 351 351 351 351 350 351 350 350 351 352 352 352 350 347 344 342 340 340 342 342 341 339 339 339 339 339 339 339 338 338 338 342 348 350 350 351 350 349 348 348 349 349 349 350 350 349 349 349 349 348 348 348 349 351 350 350 349 349 349 349 348
336 335 338 340 340 342 343 342 345 350 351 349 349 349 353 354 352 355 352 350 353 354 354 354 352 351 351 351 351 351 351 351 352 352 352 351 351 351 350 351 350 350 351 350 350 351 352 351 350 348 346 343 340 338 340 340 339 339 338 338 339 339 339 338 338 340 341 344 348 350 350 349 350 350 350 350 349 349 349 349 349 350 349 350 349 348 348 349 349 350 350 350 350 351 350 350 349
338 337 338 340 338 343 345 343 350 354 349 349 347 345 351 354 352 355 352 350 354 355 354 354 353 352 351 352 351 351 351 351 352 352 352 351 351 351 351 350 350 350 350 350 350 350 351 351 350 348 347 344 341 338 338 338 338 338 337 337 338 338 338 338 338 340 345 347 349 350 351 350 350 350 351 351 350 350 350 350 350 350 350 349 349 349 349 349 349 350 350 350 351 351 350 350 349
337 335 336 340 338 340 344 343 351 354 350 349 348 345 350 354 353 354 352 351 353 355 355 354 354 354 352 352 352 351 351 351 352 352 351 352 351 351 351 350 350 350 349 349 349 350 350 350 349 349 347 345 342 339 337 337 337 338 338 337 337 337 338 337 338 342 348 350 350 351 351 351 351 351 352 351 350 350 350 350 350 350 350 350 349 349 349 349 350 351 350 350 350 351 350 350 350
335 333 332 337 338 337 340 342 346 351 353 352 349 351 356 355 354 353 352 351 353 355 355 354 353 353 353 352 352 351 351 350 351 351 351 351 351 351 350 350 350 349 349 349 349 349 349 349 349 348 347 346 343 340 337 336 337 337 338 337 336 337 337 336 339 345 349 350 351 351 351 351 352 352 352 351 350 350 350 351 351 351 350 350 350 351 350 350 351 351 350 351 350 351 351 350 350
329 331 330 334 338 335 335 339 341 345 354 354 351 354 359 356 354 354 352 351 353 354 354 354 354 353 353 352 352 352 352 351 351 351 351 351 351 351 351 350 350 350 349 349 349 349 349 349 348 348 347 345 343 341 339 336 336 337 338 337 336 336 336 337 341 347 350 350 350 350 351 351 352 352 352 351 351 350 351 351 352 352 351 351 351 351 352 352 352 351 350 351 351 351 352 351 350
325 328 329 331 333 332 333 335 339 346 352 354 353 352 354 353 354 355 353 352 353 354 354 353 353 352 352 352 352 352 352 351 351 350 351 351 350 351 351 351 350 349 349 348 349 349 349 348 348 348 347 346 344 342 341 338 337 337 338 338 337 336 335 337 344 348 349 350 350 350 351 351 351 352 351 352 351 351 351 352 352 352 352 352 351 352 353 352 353 352 352 352 351 352 352 351 349
330 330 331 331 330 331 335 335 338 348 353 353 354 352 353 353 355 356 352 352 354 353 353 352 352 352 352 352 352 351 351 351 350 350 349 350 350 350 351 351 350 350 349 348 349 349 349 349 348 348 347 346 345 344 344 342 341 340 339 339 339 337 336 339 346 348 349 349 350 350 350 351 350 351 351 351 352 351 352 353 352 352 352 352 351 352 353 353 353 353 352 352 352 353 354 352 349
329 331 331 331 330 329 335 336 337 345 351 351 353 352 352 351 354 357 353 353 355 353 353 352 352 352 351 352 352 351 351 350 350 350 350 350 350 350 350 350 351 350 349 348 348 349 349 349 348 348 347 346 345 345 344 344 342 340 341 340 338 336 336 341 346 348 349 349 349 351 351 351 350 351 350 351 352 352 352 353 353 353 353 353 352 352 353 353 353 354 353 352 353 353 353 353 351
326 327 327 328 329 329 335 336 334 342 348 349 352 352 353 350 351 356 355 354 355 353 354 352 352 351 351 351 351 351 351 349 349 349 350 349 349 349 349 350 350 350 349 349 349 349 349 349 348 348 347 347 346 344 343 343 340 337 337 337 337 336 336 342 347 348 348 349 349 351 351 351 351 351 351 350 351 352 352 352 353 353 354 353 353 353 354 353 354 354 354 352 353 354 353 353 352
325 326 325 324 328 329 331 334 334 337 342 347 353 350 350 350 348 354 357 354 354 353 352 352 351 352 351 351 351 351 351 350 350 349 349 349 349 350 349 349 350 349 350 349 348 348 349 349 349 349 348 347 346 345 344 342 338 335 335 336 337 338 336 340 346 347 348 348 349 350 351 352 351 352 352 351 350 351 352 352 352 353 354 353 352 353 354 354 354 355 354 353 353 354 354 353 354
326 326 324 322 327 326 326 332 333 334 338 345 351 349 349 352 348 352 356 354 354 353 352 351 351 351 350 350 349 350 351 351 351 350 349 349 349 350 349 349 349 349 349 349 349 348 348 349 349 349 349 348 347 346 344 342 341 341 341 342 343 343 340 341 345 347 347 348 349 350 351 352 352 351 351 351 351 351 352 352 352 353 353 354 353 353 355 354 354 354 353 354 353 354 353 352 354
326 327 325 324 327 326 326 332 333 333 337 342 342 339 346 355 349 351 354 355 356 353 353 353 351 351 349 349 350 349 350 350 351 350 349 349 349 350 350 349 349 349 349 349 349 349 349 349 349 349 349 349 348 347 346 345 345 347 347 348 347 347 345 345 347 348 348 348 349 349 350 351 352 351 351 351 351 351 352 352 352 352 352 353 353 353 354 354 354 353 353 354 353 354 354 352 353
326 327 328 327 328 328 327 330 329 328 331 340 336 327 339 358 352 349 352 355 358 356 355 354 352 352 351 350 350 348 349 349 349 350 349 349 349 350 350 350 350 349 349 349 349 349 349 349 349 349 350 349 349 348 347 347 347 348 348 349 349 348 347 348 348 348 348 349 349 349 350 351 351 351 352 351 352 351 351 351 352 352 352 353 354 353 353 353 354 353 353 354 353 354 354 353 353
323 327 329 328 329 327 326 327 326 325 329 339 335 325 335 350 350 349 353 356 359 357 356 355 353 353 351 350 350 349 348 348 348 348 348 350 349 350 350 350 350 349 349 349 349 350 349 349 349 349 350 350 350 349 348 348 347 348 348 348 349 349 348 348 347 347 348 348 349 350 350 351 350 351 352 352 352 352 350 349 349 350 351 352 353 353 353 353 353 353 353 354 354 355 354 354 353
323 329 330 329 329 327 326 325 324 328 330 331 331 329 329 335 343 351 353 355 359 359 357 356 355 353 352 351 349 349 348 348 347 348 348 349 349 349 350 350 351 350 350 349 349 350 349 349 349 349 350 350 350 350 349 349 348 348 348 348 349 349 348 347 347 349 349 350 350 351 351 350 350 350 351 352 352 352 351 349 347 346 348 351 353 353 352 353 353 353 354 355 355 355 355 355 354
327 331 331 331 330 329 328 325 323 326 325 321 325 329 326 331 347 354 353 354 357 358 358 356 355 353 352 351 350 350 348 347 348 347 347 347 348 350 350 350 351 351 351 350 350 350 350 350 350 349 349 350 350 350 350 350 349 349 348 348 349 349 349 348 348 350 350 351 350 351 352 351 350 350 350 351 352 352 351 350 348 344 344 347 350 352 351 352 353 354 355 355 355 355 355 356 356
329 329 329 329 329 329 329 327 323 323 323 320 322 324 323 327 340 347 349 351 353 357 357 355 355 354 353 352 351 350 349 348 348 347 347 346 348 349 349 350 350 352 352 351 350 350 350 350 349 350 349 350 350 350 350 350 350 349 348 348 349 349 349 348 349 350 351 351 351 352 352 352 351 350 350 351 351 352 351 351 349 347 344 344 346 350 351 351 353 354 355 355 355 356 356 357 357
329 329 328 327 330 332 331 329 325 322 322 321 321 323 324 323 330 341 349 350 352 355 356 355 354 354 353 352 350 350 349 349 348 347 346 346 346 348 350 350 351 351 352 351 351 351 351 351 350 350 349 349 350 350 350 350 349 350 349 349 349 348 349 349 349 350 350 351 352 352 353 352 351 350 350 351 351 351 351 351 350 349 347 344 344 345 347 349 351 352 353 354 355 356 356 358 357
328 331 328 326 328 328 325 325 324 322 322 321 321 324 323 321 326 340 349 349 350 351 353 354 353 354 353 352 351 350 349 349 348 348 348 346 347 348 348 349 350 351 351 351 352 351 352 351 351 351 350 349 350 350 350 350 350 350 349 349 349 348 349 349 349 349 350 350 351 352 352 352 352 351 351 351 350 351 351 351 350 350 349 348 345 343 343 344 347 350 351 353 355 355 356 358 358
328 329 327 326 326 326 325 326 325 324 325 327 326 323 322 321 326 335 343 345 347 348 349 353 353 352 352 352 351 350 349 349 348 349 349 347 348 347 347 349 349 350 351 351 351 351 352 351 351 351 351 351 350 350 350 350 350 350 349 350 349 349 349 349 350 350 350 350 351 351 351 352 352 351 351 351 350 350 349 350 350 350 350 350 349 347 343 342 344 347 348 352 355 356 356 357 358
327 326 325 325 326 327 328 328 327 326 328 329 326 323 322 322 327 332 335 338 344 346 346 348 350 351 351 351 351 350 349 349 349 349 348 348 348 347 346 347 348 350 351 351 351 351 352 352 352 351 351 351 350 351 350 350 350 350 350 350 349 349 349 349 350 350 350 350 350 351 351 351 351 351 351 351 350 350 349 349 349 349 350 350 350 350 346 343 343 344 347 351 356 357 356 357 357
327 328 327 324 326 328 329 329 328 326 327 326 323 324 322 321 331 338 331 331 339 344 345 347 348 350 349 350 350 349 350 349 349 349 348 348 348 347 346 346 347 348 349 350 350 351 351 352 352 352 352 352 351 351 351 350 351 350 350 350 350 350 350 350 350 350 350 350 350 351 351 351 351 350 351 351 350 350 349 349 349 350 350 350 351 351 350 347 344 344 347 351 356 357 357 357 357
326 330 326 323 327 328 327 330 330 325 324 323 320 326 329 328 337 339 331 330 335 340 344 346 347 349 348 349 350 349 350 349 349 349 349 349 348 346 346 346 346 347 348 350 350 350 351 351 351 352 351 352 352 351 352 351 351 351 351 351 350 350 350 350 350 350 350 350 350 351 351 351 350 351 350 350 351 350 349 349 349 350 350 350 351 352 351 349 346 345 347 350 354 357 357 357 357
327 327 324 326 330 327 323 326 326 321 321 324 321 323 325 326 331 332 330 333 335 337 342 345 347 348 347 348 349 348 350 349 349 350 349 349 348 346 347 346 346 346 347 349 349 350 351 351 352 352 351 352 352 352 352 352 352 351 351 351 351 350 350 350 350 350 350 350 351 350 350 351 350 350 350 350 351 350 350 350 349 350 351 350 351 351 352 351 349 347 347 350 352 355 357 357 357
329 324 324 327 329 329 325 323 323 321 323 327 324 320 319 319 327 337 336 336 337 337 340 343 345 347 347 347 348 348 348 349 349 350 349 349 349 347 347 346 347 346 347 348 349 350 350 351 351 352 351 351 352 352 352 352 352 352 352 351 352 351 351 351 350 350 350 351 351 350 351 351 350 350 349 349 350 350 350 350 350 350 351 350 350 351 352 351 351 349 348 349 351 353 355 357 357
329 327 328 329 327 325 324 323 325 326 325 325 322 321 320 319 324 333 334 337 341 339 339 342 344 345 346 345 346 347 348 349 348 349 349 349 349 347 346 347 347 347 347 347 348 349 349 350 351 351 351 351 351 352 352 352 352 352 352 352 352 352 352 351 351 351 351 351 351 351 351 350 350 350 349 349 348 349 349 350 350 350 350 350 350 350 351 352 351 350 349 350 350 352 353 355 356
328 329 330 332 330 325 324 325 325 327 327 325 320 318 320 324 329 331 332 337 340 339 340 341 341 343 345 344 345 346 346 348 347 347 348 349 348 347 347 347 347 347 347 347 348 348 349 349 350 351 351 351 351 351 352 352 352 352 352 352 352 352 352 352 351 351 351 351 351 351 351 351 350 350 349 349 348 347 348 348 349 348 349 351 351 350 351 351 351 351 349 350 350 351 352 353 355
325 325 325 327 327 325 326 324 322 326 329 327 321 318 323 335 338 333 333 334 334 338 340 340 339 340 342 343 344 345 346 346 347 346 347 347 347 348 347 347 347 347 347 348 347 348 348 349 350 350 351 351 351 352 352 352 352 352 352 352 352 352 352 352 351 351 352 351 351 351 351 351 350 350 350 349 349 349 348 347 347 348 349 350 350 351 351 352 352 352 351 350 350 351 352 352 353
321 322 323 325 325 324 326 325 321 321 325 327 325 320 325 338 337 330 333 333 329 334 338 338 339 338 340 342 342 345 346 345 345 346 346 347 348 348 347 347 347 347 347 347 348 348 348 349 349 350 351 351 351 352 352 352 352 352 352 353 352 352 352 352 352 352 352 351 351 351 351 351 351 350 350 349 349 349 349 348 349 349 350 351 350 350 350 351 352 352 352 351 351 352 352 353 353
Wind_Speed
12 15 14 14 15 12 6 2 1 1 2 2 1 1 2 3 2 1 3 3 1 2 1 5 10 6 4 5 6 4 3 3 2 2 2 2 17 28 22 24 28 25 25 24 24 22 19 18 19 19 19 19 19 18 18 17 17 17 17 16 16 16 15 15 14 14 14 13 12 11 11 11 11 12 14 13 11 10 10 11 11 10 10 10 10 11 11 10 10 9 9 9 9 10 11 12 13
15 16 14 14 15 8 1 1 1 0 1 2 2 2 1 1 2 2 5 4 2 4 2 7 9 5 5 8 8 4 4 4 2 2 2 12 22 22 22 26 29 27 26 25 25 22 20 18 19 19 19 19 18 18 17 17 17 17 17 16 16 16 15 15 14 14 13 13 12 11 10 10 11 13 14 11 10 9 8 10 10 9 9 9 10 10 11 10 9 9 9 9 11 12 12 11 12
18 17 17 15 9 3 0 1 1 0 1 2 3 2 2 1 2 2 4 4 4 7 5 8 8 4 4 6 4 2 2 2 5 5 6 18 18 17 25 28 29 28 26 27 25 22 20 18 18 19 18 18 18 17 17 17 17 17 16 16 16 15 15 14 14 14 13 12 11 10 10 10 12 14 13 11 10 9 7 8 8 8 8 9 10 10 10 10 9 9 9 10 10 12 12 11 11
19 18 20 13 3 2 1 1 1 1 1 2 3 2 2 1 2 2 4 5 6 7 6 8 5 2 3 5 2 3 3 3 6 7 8 15 17 23 29 29 29 27 27 27 25 23 20 18 18 18 18 18 17 17 17 16 16 16 15 15 15 15 15 14 14 13 12 12 11 10 9 10 12 13 11 10 10 9 8 8 8 7 7 8 10 9 9 9 9 8 9 9 10 10 10 11 11
18 18 17 6 1 2 1 1 1 1 3 2 2 3 2 1 3 4 4 7 7 7 6 6 4 2 4 4 1 2 4 5 7 8 10 14 22 30 30 31 30 26 26 26 25 23 20 19 18 18 18 17 17 17 16 16 16 15 15 14 14 14 14 14 13 12 12 12 10 10 9 10 13 12 9 9 10 8 8 8 8 7 7 8 8 9 9 9 9 8 8 8 9 9 9 10 10
18 15 11 3 1 1 0 1 1 3 4 3 2 3 2 2 3 5 6 7 6 6 5 4 5 5 5 3 3 3 5 6 8 10 14 19 27 31 31 33 30 26 26 26 26 24 21 19 18 18 17 17 17 17 16 16 15 15 15 14 14 14 13 13 13 12 12 11 10 10 10 10 13 11 8 9 10 8 8 8 8 7 7 8 7 8 8 8 9 8 7 8 9 9 9 9 9
17 10 5 3 1 0 1 2 2 3 3 3 2 2 2 3 3 7 8 7 5 4 4 4 7 7 4 1 3 3 4 7 10 13 18 26 31 31 31 32 29 27 26 26 26 24 21 19 18 18 17 17 16 17 16 15 15 14 14 14 14 13 13 12 12 11 11 11 10 10 10 11 12 11 9 8 9 9 8 8 9 7 7 7 7 7 7 7 9 8 7 8 8 8 9 9 8
15 5 1 1 0 0 1 3 3 3 2 2 1 1 2 4 3 5 6 4 4 3 5 6 6 6 3 2 3 3 5 10 12 17 25 30 33 31 32 32 29 28 27 28 26 24 21 19 18 18 17 16 16 16 16 15 15 14 14 13 13 13 12 12 12 11 11 11 10 10 10 11 12 11 9 9 8 8 9 9 9 8 7 7 6 7 7 7 9 8 7 8 8 8 8 8 8
9 3 0 0 0 1 2 3 3 3 2 1 1 0 3 4 3 4 6 4 4 5 5 5 4 5 4 5 5 3 7 14 17 22 28 32 33 32 32 31 30 30 29 28 26 24 21 19 18 18 17 16 16 16 16 16 15 14 13 13 13 13 12 12 12 11 11 10 10 10 10 11 11 11 10 10 9 8 8 8 9 9 7 7 7 8 7 7 8 9 7 7 7 7 7 7 7
4 2 0 0 1 2 3 2 2 2 1 1 1 2 4 5 3 3 5 6 7 6 5 5 6 7 7 6 4 3 10 20 24 26 28 31 32 31 31 30 30 31 30 28 26 24 21 19 18 17 17 16 16 16 16 16 14 14 13 13 13 13 12 12 11 11 11 10 10 10 10 10 10 10 10 10 9 8 8 9 9 9 7 7 9 8 8 7 8 8 7 6 6 6 6 6 8
1 1 1 1 1 2 2 2 3 3 1 1 2 3 4 5 4 3 4 7 7 6 6 5 7 8 8 5 3 7 18 24 26 28 29 30 30 30 30 29 30 31 30 28 26 24 22 20 18 17 17 16 16 16 16 15 14 13 13 13 12 12 12 12 11 11 11 10 10 10 10 11 10 10 10 9 9 8 8 9 10 9 8 7 8 8 8 8 8 8 7 6 6 6 7 7 8
0 1 1 1 2 2 2 3 3 2 2 2 3 3 4 5 5 4 6 7 6 7 4 3 6 7 7 4 3 11 20 22 25 29 29 29 29 28 28 28 29 30 29 28 26 24 22 20 19 17 17 16 16 16 15 14 13 13 13 13 12 12 12 11 11 11 11 11 11 11 11 11 11 11 11 9 8 8 9 9 10 10 10 9 9 9 8 8 8 7 7 6 6 6 6 6 7
1 1 2 1 2 2 2 3 3 1 1 1 3 3 4 5 4 4 6 7 7 7 3 5 9 6 6 5 5 10 15 21 25 28 29 29 28 27 27 28 28 29 28 27 26 24 22 21 19 18 17 16 16 16 14 14 13 13 13 13 13 12 12 12 11 11 12 12 12 11 11 11 11 11 11 9 7 8 9 10 10 11 11 10 10 9 9 8 7 8 7 6 6 6 6 6 7
1 1 2 1 1 1 2 2 2 1 2 1 3 3 4 3 3 3 5 8 6 4 5 8 10 7 6 6 7 7 12 23 27 27 28 27 27 27 26 27 28 28 27 27 26 24 22 21 20 19 18 17 16 15 14 13 13 13 13 13 13 12 12 12 11 11 11 11 11 11 11 11 10 10 10 10 8 8 9 10 10 11 11 10 10 9 9 9 7 7 7 6 6 6 5 6 7
2 0 1 2 2 2 2 2 2 2 2 2 3 3 4 2 3 4 3 6 3 5 9 7 6 6 6 8 7 8 17 27 27 26 27 27 27 26 26 27 27 27 26 27 26 23 23 22 21 20 18 18 17 16 14 13 13 13 13 13 12 12 12 12 12 11 11 10 10 10 10 10 10 10 10 10 10 9 9 9 9 10 10 9 8 7 9 9 7 6 7 6 6 6 5 6 6
2 1 1 2 2 2 2 3 2 2 2 2 3 3 5 3 2 4 1 2 5 8 7 5 3 3 7 7 8 17 26 29 28 27 27 26 26 25 25 26 26 26 26 26 25 23 23 23 22 21 19 19 18 17 15 14 13 13 13 13 12 12 12 12 12 11 11 10 10 10 10 10 10 9 10 10 10 10 10 10 9 9 9 8 7 7 7 8 7 6 6 6 6 6 5 6 5
1 1 2 3 2 2 2 3 2 2 2 3 4 5 6 2 2 2 1 3 7 8 4 4 2 3 8 9 17 28 30 29 28 28 26 25 26 26 25 26 26 25 25 26 25 24 24 23 23 21 20 20 19 17 16 15 13 13 13 13 12 12 13 12 12 11 10 10 10 10 10 10 10 9 10 10 10 10 10 10 9 9 9 8 8 7 7 7 7 6 6 6 5 5 5 5 4
1 1 2 3 3 3 3 3 3 3 3 5 6 7 7 5 3 2 2 5 5 6 3 5 6 7 11 18 27 31 30 29 28 27 25 23 24 24 24 25 26 25 25 25 24 25 25 24 24 22 21 20 19 18 17 16 14 13 14 13 13 13 13 12 12 12 11 10 9 10 11 11 11 10 10 10 10 9 9 10 9 8 9 8 8 7 7 6 6 6 5 6 5 4 4 4 4
3 2 1 4 4 4 3 2 2 2 4 6 7 7 6 7 6 3 3 4 5 6 4 8 10 11 15 21 28 29 29 28 27 26 23 21 22 22 23 24 26 25 26 26 25 26 25 25 24 23 22 21 20 19 18 16 15 14 14 14 13 13 13 13 12 12 12 11 10 10 11 12 11 10 9 9 9 9 9 9 8 8 8 8 7 7 6 6 5 5 4 5 5 4 4 3 3
4 2 3 6 5 5 5 4 5 1 5 8 7 6 5 7 7 4 5 6 6 6 7 9 11 13 16 18 23 27 27 26 26 25 23 21 21 22 23 23 24 25 26 27 26 26 26 26 24 24 23 22 21 20 19 17 16 15 15 15 14 14 14 13 13 12 12 11 10 10 11 11 11 10 9 8 8 8 8 7 7 7 8 7 6 6 6 5 5 4 4 4 4 4 3 2 2
3 4 5 5 3 5 7 4 4 1 6 8 7 6 5 6 6 5 9 8 5 7 10 12 14 17 19 18 21 25 24 24 25 23 23 22 21 21 21 22 23 24 25 25 26 26 27 27 26 25 23 23 22 21 20 18 17 17 16 16 15 15 14 14 13 12 12 12 11 11 10 11 11 9 9 9 7 7 8 8 7 8 9 7 6 5 5 5 5 5 4 3 3 3 3 2 1
2 6 8 5 1 2 6 5 3 1 5 6 7 7 6 6 5 7 12 10 6 7 10 12 15 18 21 21 20 22 21 21 23 23 23 22 22 21 22 23 23 23 25 25 26 27 28 28 27 26 24 23 22 22 21 19 18 18 17 17 16 15 15 14 14 13 13 12 11 11 11 11 10 9 9 8 7 6 7 8 7 8 8 7 5 5 5 5 5 5 5 4 3 2 2 1 1
4 6 7 8 5 5 6 5 4 1 5 5 6 6 6 7 5 7 12 9 3 5 9 13 15 18 22 22 20 19 19 19 21 24 24 24 24 23 24 25 25 25 25 25 26 27 27 28 28 27 25 24 23 22 22 20 19 19 18 17 17 16 16 15 15 14 14 13 12 11 11 10 9 9 8 7 6 6 6 7 7 6 6 5 5 5 5 6 6 6 5 5 4 2 1 0 1
7 7 7 8 7 10 9 6 7 2 3 5 5 5 7 9 5 6 11 6 5 10 12 14 15 18 21 20 19 18 18 19 21 23 24 23 24 24 25 25 25 26 25 25 26 27 28 28 29 28 26 25 24 23 22 22 20 20 19 19 18 17 16 16 16 15 14 13 12 11 10 10 9 8 8 6 5 5 6 6 6 5 5 4 4 4 5 6 6 5 5 4 3 2 1 1 2
10 11 6 5 6 9 8 7 8 7 5 2 6 7 9 10 5 6 10 5 7 13 15 15 16 17 17 17 19 17 16 18 20 23 23 22 23 23 23 24 25 26 26 26 26 27 29 29 30 29 28 27 25 24 23 23 22 21 20 20 19 18 17 16 16 16 15 14 12 12 11 9 9 9 8 6 5 5 5 5 5 4 4 4 4 4 5 6 5 5 4 3 2 1 1 0 1
11 12 7 5 6 6 6 7 9 9 6 4 7 8 8 8 4 3 8 7 9 14 16 16 17 17 16 16 17 17 16 18 20 23 23 23 24 23 24 25 26 27 27 27 27 27 29 29 31 31 29 28 27 26 25 24 23 23 22 21 20 19 17 16 16 16 15 14 13 12 11 9 9 8 7 6 6 5 5 5 4 4 4 3 4 4 5 6 5 4 3 2 1 1 1 1 2
6 9 8 10 11 9 8 9 9 7 6 7 9 9 7 8 5 4 6 10 12 15 16 16 17 17 17 16 15 16 16 19 22 23 22 22 23 24 25 25 26 27 27 27 28 28 29 30 31 31 30 29 28 27 26 26 25 24 23 22 21 19 18 17 16 16 15 15 14 12 11 9 8 8 7 7 6 5 5 5 4 5 4 4 4 5 6 5 5 4 3 2 1 1 2 2 2
4 4 7 11 11 10 10 11 10 5 4 9 10 6 4 7 7 7 7 13 15 16 16 17 17 16 16 17 14 13 14 19 23 23 22 23 25 26 27 28 28 28 29 30 30 29 29 30 31 31 31 30 29 28 27 27 26 24 23 23 22 20 19 17 17 16 16 15 14 13 11 9 8 8 8 7 6 6 5 5 5 5 5 5 5 5 6 5 5 4 3 2 1 1 2 3 3
6 5 6 9 7 8 10 9 8 5 5 8 8 1 3 8 10 7 10 14 15 16 17 16 16 15 15 15 13 11 14 19 22 22 24 26 27 28 29 30 30 30 30 31 30 30 30 31 31 32 31 31 31 30 28 28 27 25 24 23 22 20 19 18 17 16 16 15 14 13 11 10 9 8 8 8 6 6 6 6 6 6 6 5 5 5 5 5 5 4 3 2 2 2 2 3 3
6 6 5 6 6 7 8 6 7 6 5 9 9 2 5 10 10 8 12 15 15 15 15 15 14 13 14 14 12 12 14 18 20 23 26 26 27 28 29 30 31 31 29 29 30 30 31 31 31 31 32 32 31 31 29 28 27 26 24 23 22 21 20 19 18 16 15 15 14 13 12 11 10 9 8 8 8 7 7 7 7 6 6 6 6 6 6 5 5 4 3 3 3 2 2 3 4
3 4 3 3 2 5 5 4 7 5 4 11 11 4 6 8 8 9 12 16 17 15 15 14 13 12 13 13 13 12 14 17 21 24 26 27 27 28 28 29 31 31 30 31 32 32 32 31 31 32 32 32 32 32 31 29 28 27 25 24 23 22 21 19 18 16 16 15 14 13 13 11 10 9 9 9 9 9 9 8 8 6 6 6 6 6 6 5 4 4 4 4 3 3 2 2 3
1 3 3 3 4 5 5 3 8 7 3 10 11 4 5 5 6 10 12 16 17 15 15 14 14 14 14 13 13 12 13 17 22 25 26 27 27 27 29 30 31 32 32 32 32 32 32 32 32 32 33 33 33 33 31 30 29 28 26 25 24 22 21 20 18 17 16 15 14 14 13 12 11 10 9 9 10 10 10 10 9 7 7 7 6 7 6 6 5 4 4 4 4 3 3 3 2
2 3 4 3 5 6 4 4 7 10 4 7 11 5 2 4 7 11 12 15 16 14 15 15 15 15 15 13 12 12 12 14 18 23 27 28 28 29 30 31 32 33 33 33 33 33 33 32 32 32 33 34 34 33 32 31 30 29 27 26 24 23 22 20 19 18 17 16 15 14 14 13 12 11 10 9 10 11 11 11 10 8 8 8 7 7 7 6 6 5 5 4 4 4 3 3 1
3 2 4 3 5 5 3 4 5 8 7 7 11 8 4 4 8 13 13 16 15 13 15 16 15 14 14 13 12 13 13 14 15 21 28 29 28 29 30 31 32 33 33 33 34 34 34 34 33 33 33 34 34 33 32 32 30 29 28 26 25 23 22 21 19 19 19 17 16 15 14 14 14 13 11 10 10 11 11 11 10 9 9 8 8 7 7 7 6 6 5 5 5 4 3 2 1
5 3 3 3 4 4 4 3 3 7 8 8 10 11 8 3 8 13 14 16 16 15 16 15 15 15 14 13 13 13 14 15 15 22 29 30 29 30 30 31 32 33 33 33 34 34 34 33 33 33 32 33 33 33 32 31 30 29 28 26 25 24 23 22 21 21 19 18 17 16 15 16 16 15 12 11 11 12 11 11 11 10 10 9 9 9 8 7 7 7 6 6 5 5 3 1 2
6 6 4 4 4 5 5 4 3 6 6 7 10 12 11 6 8 13 13 15 15 13 13 13 13 14 13 13 13 14 15 15 17 24 28 29 30 30 30 31 32 33 33 33 33 33 34 33 33 33 33 32 32 31 30 29 29 29 28 27 26 27 25 24 23 22 20 19 18 16 17 17 17 15 13 12 12 12 12 12 11 11 11 10 10 10 9 8 8 8 7 7 6 6 3 0 2
3 3 3 4 5 5 5 3 4 5 5 7 10 12 13 9 10 14 14 14 13 12 13 13 13 13 14 15 15 16 16 14 18 24 27 29 30 31 30 31 32 32 33 34 34 34 35 35 34 34 34 32 32 31 31 31 31 31 29 29 30 30 28 26 25 24 22 20 18 17 18 18 18 16 15 14 14 14 13 13 12 12 12 12 11 10 9 8 8 8 8 8 7 6 4 1 2
4 2 3 4 5 5 6 3 3 4 4 6 8 10 12 10 11 13 13 14 14 14 16 15 16 15 14 16 17 16 13 11 15 19 24 28 29 31 31 30 32 32 33 35 36 36 36 36 36 35 34 33 34 35 34 34 34 34 33 33 33 32 30 28 27 26 23 21 19 18 18 19 19 18 17 16 16 17 16 14 14 13 13 13 12 11 10 9 9 9 8 8 8 7 5 3 2
7 4 3 4 4 3 6 5 3 4 4 4 6 8 11 10 9 11 14 16 16 17 18 18 19 17 15 16 16 15 13 13 15 17 21 27 29 31 31 30 32 34 34 36 36 36 36 36 36 35 35 35 35 36 36 36 36 36 34 33 32 30 29 29 28 25 23 21 20 19 18 19 19 20 19 18 18 18 18 17 15 14 14 14 13 12 11 10 9 9 9 9 8 8 6 4 4
7 6 5 4 3 3 4 4 2 3 5 4 4 5 8 7 6 9 15 16 15 15 18 17 17 19 19 19 16 15 17 16 17 17 18 24 28 30 31 30 32 33 33 35 36 36 36 37 37 36 36 36 36 36 37 37 35 33 31 29 26 25 25 26 25 24 23 23 22 21 20 20 19 20 21 20 20 20 20 19 17 16 15 14 14 13 13 12 10 10 10 10 9 9 7 5 5
7 8 8 6 5 5 3 3 3 2 4 3 3 2 5 5 7 8 11 12 11 11 13 12 13 16 16 15 14 15 17 17 17 18 18 20 25 29 32 32 32 33 34 35 37 38 37 38 39 38 37 37 37 37 37 35 32 29 28 24 20 20 19 19 21 23 24 25 25 24 23 21 20 20 21 21 20 20 20 21 20 18 16 15 15 14 14 13 11 11 10 10 10 10 9 6 6
5 9 11 9 7 5 2 4 4 3 4 3 3 2 6 4 9 10 9 10 12 10 12 15 14 14 12 12 14 15 16 15 16 18 18 19 23 27 30 32 33 34 35 37 38 39 38 38 38 38 37 37 37 37 36 34 32 30 28 25 22 21 20 21 24 26 28 28 28 26 25 23 21 21 22 22 20 19 19 21 21 21 19 17 16 15 14 13 12 11 11 10 10 10 10 8 7
7 8 9 9 7 5 2 1 2 1 4 5 1 3 5 4 6 10 9 13 16 13 14 17 15 13 13 13 15 15 15 15 15 16 17 17 21 25 28 32 35 35 36 37 38 39 38 37 38 38 37 37 37 36 36 34 33 31 30 30 28 27 26 27 30 30 30 30 29 26 25 24 23 21 22 22 21 19 18 18 20 22 22 19 17 16 15 14 13 12 11 11 10 9 10 9 8
7 4 8 7 7 6 5 3 3 3 3 6 2 2 3 4 5 8 10 14 15 14 16 17 15 14 16 15 15 16 17 16 15 16 18 19 22 26 29 34 37 36 36 36 37 38 39 38 38 39 38 37 37 36 36 36 35 34 33 32 31 29 29 30 30 29 29 29 28 26 25 25 24 23 22 23 22 21 19 17 18 20 22 22 20 18 17 15 13 12 12 11 11 10 11 11 10
5 6 9 8 8 8 7 5 5 3 2 7 4 2 2 6 5 3 8 12 13 15 18 17 17 17 17 17 17 17 17 17 16 17 18 19 24 30 33 35 36 35 35 36 38 38 39 39 39 39 39 38 37 36 37 37 37 36 35 34 32 30 30 29 27 26 26 27 27 27 26 25 25 25 23 23 23 23 21 19 17 19 21 22 22 20 18 17 15 14 13 12 12 12 12 12 11
4 5 5 5 6 6 6 6 5 3 4 9 7 4 3 6 5 2 5 9 12 14 16 16 18 19 18 17 18 17 16 15 16 17 17 20 26 31 33 33 33 35 36 37 37 37 37 38 37 38 39 38 37 37 38 38 38 37 36 35 33 31 29 27 25 25 25 25 26 27 26 25 25 26 25 23 23 24 23 21 19 18 19 21 23 22 20 18 17 15 14 13 12 12 13 13 13
5 4 2 0 1 3 4 4 3 3 8 10 9 8 6 6 5 4 5 8 12 13 12 13 15 16 17 16 16 16 15 14 15 15 16 19 25 29 29 30 33 35 35 35 35 36 37 37 37 38 40 39 38 38 39 39 39 38 36 35 34 32 29 27 26 25 25 26 26 27 27 26 25 26 26 24 24 24 24 23 22 19 18 20 22 23 22 20 18 16 14 13 13 13 13 13 13
6 5 4 2 2 2 2 1 3 7 9 7 8 8 8 8 7 5 7 9 13 13 14 15 17 18 17 16 16 16 16 15 15 15 15 16 18 22 27 30 32 34 34 34 36 36 36 37 38 39 39 39 39 39 39 40 39 38 37 36 35 34 31 29 29 28 27 28 28 27 26 26 25 26 26 25 25 25 25 24 23 22 20 19 20 22 23 22 20 18 16 15 14 13 13 13 14
7 5 5 5 3 1 3 3 3 7 7 4 6 7 7 9 8 8 9 10 12 14 16 17 19 20 18 17 17 15 15 15 15 14 14 14 14 17 24 29 31 33 35 36 36 36 36 37 39 39 39 40 39 39 40 39 39 39 38 37 36 35 33 32 31 30 30 30 29 28 28 27 26 26 26 26 26 26 25 25 24 24 22 20 19 20 21 22 21 20 18 16 15 14 14 14 14
8 7 6 6 4 4 6 4 3 4 5 4 5 6 4 5 6 11 14 13 13 14 15 15 17 19 20 19 18 16 15 15 15 14 14 14 15 17 22 28 30 31 34 36 36 36 36 36 38 39 39 41 40 40 40 40 40 40 40 38 37 35 34 34 33 32 31 31 30 30 30 30 29 29 29 29 27 26 25 25 24 24 23 20 19 18 19 20 21 20 19 17 16 15 15 15 15
8 8 7 6 6 5 4 3 4 4 4 5 4 5 5 4 5 10 14 15 14 13 14 14 15 16 16 15 15 15 15 14 14 14 15 16 17 20 23 26 29 31 34 36 36 36 36 36 39 40 39 40 40 40 40 40 40 41 40 38 37 36 35 35 34 33 32 32 31 31 31 31 31 31 31 30 28 26 26 25 24 24 24 22 20 19 19 19 20 20 20 18 17 16 15 16 16
6 7 7 8 5 4 2 4 5 3 2 4 4 4 4 4 5 6 8 11 12 14 14 13 14 13 12 11 12 13 13 14 13 13 15 17 18 21 24 26 28 31 33 35 37 38 38 38 39 41 41 41 41 40 40 40 41 40 39 39 38 37 35 34 33 33 33 33 32 32 32 32 32 32 31 30 29 27 26 25 24 24 24 23 21 20 19 19 20 21 20 20 19 18 17 17 17
4 7 8 7 6 5 4 4 2 3 3 5 3 4 3 2 6 5 4 7 10 13 13 13 14 13 12 12 13 15 14 14 14 14 16 17 17 20 25 28 29 32 34 37 39 41 41 40 39 40 40 40 41 41 40 40 40 39 39 39 39 38 36 35 34 34 33 33 33 32 32 32 32 31 31 31 30 28 27 25 24 24 24 24 23 22 21 20 20 21 21 21 20 20 19 18 17
5 6 8 5 5 4 5 4 2 3 6 5 2 5 4 4 6 4 4 7 10 12 11 12 13 12 13 14 15 16 17 16 17 17 17 16 16 19 26 29 32 35 37 39 40 41 40 40 40 40 40 39 40 41 41 40 40 39 39 39 39 38 38 37 36 35 33 32 32 32 32 32 32 32 31 31 30 29 28 27 25 25 25 25 24 23 22 21 20 21 21 21 20 20 20 20 19
7 5 7 7 4 6 6 5 5 5 5 4 3 4 4 6 6 4 7 10 11 12 11 10 11 12 13 14 15 17 18 16 16 16 15 15 15 19 25 29 32 35 37 38 40 39 39 40 40 41 41 41 41 41 40 40 39 39 38 39 39 39 38 37 36 34 32 32 33 33 33 33 33 32 31 31 30 30 29 28 28 27 26 26 26 25 24 22 22 22 22 22 21 20 21 21 21
8 4 6 6 4 6 6 4 3 4 4 3 3 3 4 6 6 7 11 12 12 12 10 10 12 13 14 14 14 15 16 15 15 15 15 16 16 20 27 31 33 35 36 36 37 38 39 39 39 39 40 40 40 40 40 39 39 38 37 37 38 38 38 37 36 34 33 33 34 33 33 33 32 31 31 31 30 30 30 29 29 28 28 28 27 26 26 24 24 23 23 23 22 22 22 22 22
4 4 5 6 4 2 4 3 2 4 4 3 3 4 5 5 5 9 12 12 12 13 12 11 12 13 15 14 14 14 15 16 17 16 16 17 18 21 28 32 33 32 32 32 35 37 38 38 38 39 39 38 39 39 39 39 38 38 37 37 37 38 37 36 35 34 34 35 34 33 33 32 31 31 31 31 31 30 30 30 29 29 28 28 28 28 27 27 26 25 24 24 24 24 24 24 23
1 2 3 6 5 3 4 5 3 4 4 4 4 5 6 5 4 8 11 11 12 13 13 12 12 14 15 14 14 15 15 16 18 17 17 17 17 19 25 28 28 28 29 32 35 36 37 38 39 39 38 38 39 39 39 39 38 38 38 38 37 37 37 36 35 35 35 35 34 34 33 32 31 31 31 31 32 31 31 31 30 30 29 29 29 28 28 28 27 27 26 26 26 26 26 26 25
Wind_Direction
151 152 161 163 154 148 158 201 244 192 241 275 236 218 238 207 139 154 133 140 158 139 144 122 132 137 123 122 134 111 64 143 146 140 174 196 149 150 154 156 154 149 146 143 141 137 134 139 138 136 135 133 131 129 129 128 128 128 128 128 129 130 130 130 129 130 130 129 129 126 126 129 122 112 104 105 119 133 133 121 114 115 114 110 109 101 94 91 92 92 91 100 107 109 111 115 116
155 157 163 156 152 154 152 213 260 181 244 286 253 196 216 167 135 180 160 159 135 135 142 126 123 92 85 114 126 99 41 29 82 105 107 138 140 147 156 158 155 149 146 145 143 137 135 141 141 138 136 134 133 130 129 129 129 128 129 129 130 130 129 129 129 130 128 127 126 125 126 125 115 102 102 115 130 129 119 115 117 122 121 115 111 102 96 91 90 92 90 98 106 110 111 111 110
161 162 159 153 154 199 302 167 250 166 259 267 270 233 159 139 171 167 153 147 120 131 127 121 112 78 93 113 114 73 72 49 110 108 119 142 140 151 159 159 156 149 146 147 144 138 138 144 144 140 138 136 133 132 131 130 131 131 131 130 131 129 128 127 127 126 124 122 122 124 125 120 108 100 111 132 131 120 115 116 118 116 117 115 110 102 96 91 88 90 90 94 101 105 105 104 102
165 166 159 152 157 239 192 173 258 210 242 239 272 260 180 180 155 118 129 132 129 133 127 127 108 22 90 115 123 81 111 129 134 128 136 155 153 156 159 159 156 150 148 149 145 141 142 147 146 142 139 137 134 133 132 131 132 132 130 129 130 129 127 125 123 122 121 119 117 120 121 113 101 103 125 133 121 116 120 118 111 108 111 109 107 104 101 95 87 87 89 94 99 100 101 103 103
166 166 164 160 219 205 192 211 248 228 231 197 242 264 204 172 126 110 116 126 136 140 133 130 101 45 73 88 134 117 124 122 149 151 140 156 156 155 158 159 156 152 151 151 148 145 147 150 147 144 139 137 135 135 133 132 133 131 128 127 127 126 125 124 122 120 120 119 116 117 115 106 101 110 127 121 112 113 117 116 107 103 106 107 109 110 109 101 91 89 90 97 102 101 101 102 104
163 167 178 228 298 169 342 238 221 244 244 177 205 268 183 156 128 117 111 118 129 137 122 95 106 108 83 57 37 111 146 129 154 163 145 151 155 155 158 158 156 153 153 152 152 149 150 152 148 145 141 139 139 137 135 133 132 130 128 126 125 124 123 123 121 120 120 118 115 115 112 105 103 110 116 110 110 111 110 111 107 102 107 110 110 109 111 106 97 94 94 100 105 105 101 100 102
159 165 197 245 292 192 271 265 253 254 255 190 206 289 152 154 126 117 117 121 120 112 86 95 118 105 79 86 74 83 151 143 148 159 153 151 153 156 157 158 156 153 153 153 154 152 151 153 150 147 143 142 142 139 136 134 133 130 128 127 124 123 122 121 120 120 120 119 115 112 112 107 105 109 110 107 110 112 109 105 103 102 107 108 108 108 111 110 105 101 101 103 103 103 100 101 107
164 175 236 226 323 337 273 276 261 238 238 209 215 336 136 138 113 119 127 120 116 108 104 131 124 94 66 78 99 68 101 133 145 151 150 148 152 155 157 157 155 154 154 154 156 153 152 153 153 150 145 145 144 141 138 136 134 132 130 128 125 123 121 121 120 119 118 117 114 111 111 107 107 112 111 110 111 110 107 105 106 107 108 109 115 118 117 118 112 106 104 108 104 98 96 100 106
180 211 359 190 305 291 267 269 258 237 225 217 214 173 123 118 92 116 125 97 108 118 122 141 108 102 110 88 101 76 94 129 141 144 146 148 152 154 156 158 157 155 156 156 156 154 154 156 155 152 148 147 146 144 142 138 136 135 133 131 128 125 123 121 120 119 118 116 114 113 110 108 110 112 111 110 110 110 108 109 111 109 108 113 121 118 116 119 115 109 105 112 110 101 96 97 103
200 227 235 168 230 284 279 256 243 252 226 191 186 142 126 125 106 105 113 110 120 114 110 97 79 114 128 103 102 106 124 136 139 140 147 149 151 154 156 160 159 156 156 157 157 155 155 157 157 155 152 149 148 147 143 138 137 138 136 134 131 128 125 122 122 120 119 118 116 114 112 112 112 113 112 108 106 106 105 106 106 104 104 111 118 114 113 120 116 109 108 117 118 109 104 100 105
183 190 240 265 252 261 257 252 265 273 230 178 135 126 133 133 115 96 103 115 119 114 124 95 93 121 115 106 101 124 134 139 141 142 149 150 151 155 155 159 160 157 157 158 159 157 156 159 159 157 154 151 151 148 141 139 141 141 138 136 133 130 128 125 124 122 121 119 117 115 113 112 112 112 111 106 105 103 102 103 103 104 105 103 108 111 113 119 118 111 115 124 119 110 106 102 104
134 163 124 277 249 219 233 266 282 267 207 182 146 136 136 130 119 123 120 121 122 122 145 129 137 135 107 115 120 127 133 139 145 146 149 150 151 155 156 158 159 160 159 160 161 158 157 160 160 159 157 153 153 148 143 143 142 141 141 138 134 132 130 127 126 122 120 117 115 112 112 112 109 107 105 105 105 108 109 106 106 108 110 107 109 114 115 119 122 121 125 127 121 113 104 100 107
208 151 99 262 211 199 259 280 279 248 245 180 140 138 130 122 126 140 123 126 136 135 151 142 148 133 103 122 125 133 137 143 149 148 149 150 151 154 155 157 159 161 161 162 161 159 160 161 162 161 158 156 155 150 146 146 142 143 142 137 134 133 131 130 127 122 119 118 116 114 115 111 106 104 105 104 99 100 104 103 103 103 104 107 108 110 116 123 129 132 133 133 128 122 110 107 114
194 173 113 268 233 243 252 259 270 222 268 165 117 137 130 100 122 126 113 131 143 139 126 132 138 109 107 136 134 149 146 148 151 149 150 150 151 153 154 157 159 162 163 164 163 161 162 163 164 162 160 159 156 152 149 146 144 144 140 136 135 136 134 132 129 124 121 122 121 121 120 115 114 113 114 113 105 98 93 94 97 97 99 101 102 106 116 124 131 135 136 142 140 135 128 122 122
189 280 130 269 302 295 238 214 230 188 238 148 126 142 108 46 111 97 96 134 127 121 118 130 143 106 149 170 155 163 151 150 152 149 149 149 150 152 154 156 159 162 165 166 165 164 165 166 166 164 164 161 157 154 153 149 146 144 139 139 139 138 137 133 131 129 126 126 124 123 120 118 120 119 118 115 112 110 101 96 96 94 94 95 100 106 113 118 127 134 140 147 152 150 139 130 127
194 324 161 272 272 275 237 200 169 169 237 137 135 140 100 30 82 83 57 111 114 136 130 147 182 132 168 175 143 149 149 150 151 148 148 147 148 151 154 157 160 164 166 168 167 168 169 168 168 168 167 163 160 157 155 152 149 146 143 143 142 141 139 135 132 130 129 127 125 123 121 121 119 117 116 113 113 115 111 108 109 107 103 103 107 112 115 120 129 139 147 152 161 159 144 135 128
134 279 215 264 237 245 223 189 174 159 180 141 161 158 128 89 66 90 124 63 120 151 137 132 135 107 147 141 135 143 147 150 149 148 147 147 148 150 155 159 162 164 167 170 170 172 173 171 171 171 169 166 163 160 158 155 152 150 148 147 146 144 141 138 135 131 131 129 129 130 131 129 123 123 121 119 117 113 112 112 115 118 117 117 116 118 124 129 137 145 148 154 162 160 148 138 124
168 210 218 249 224 234 211 189 197 158 152 165 179 171 148 142 133 150 127 58 116 149 112 105 77 77 113 125 135 143 147 150 150 150 150 151 152 153 158 162 164 166 168 171 173 175 176 174 174 174 171 169 166 163 161 158 158 157 154 153 150 149 146 144 142 140 141 138 142 146 144 140 134 134 130 127 125 119 117 115 115 117 118 119 115 115 120 126 133 139 145 150 151 154 158 150 133
203 206 210 236 215 229 230 240 255 159 156 163 170 176 166 153 146 166 149 114 145 144 114 108 95 97 114 127 138 146 150 152 154 155 155 157 159 159 161 164 167 168 170 173 175 177 178 177 177 177 174 173 171 167 165 163 164 163 160 159 157 154 153 153 151 150 153 152 156 156 150 147 142 138 135 134 133 128 122 118 121 122 118 116 116 115 115 119 120 124 134 141 150 162 169 164 146
207 216 232 241 236 263 278 254 260 286 144 151 159 176 179 154 143 168 146 137 171 165 149 135 127 132 132 138 145 151 154 156 158 158 159 161 164 164 163 166 168 171 174 174 176 178 181 180 179 181 178 177 176 172 170 169 169 170 167 165 163 160 160 161 160 162 165 161 157 155 153 150 145 143 143 145 145 139 133 133 137 134 127 125 130 127 120 120 120 123 128 138 155 163 168 171 156
178 203 222 238 228 256 275 263 262 339 134 149 149 161 177 157 146 161 138 137 200 201 180 161 151 148 144 148 153 156 157 159 162 162 163 164 166 167 167 168 170 173 174 175 177 180 183 183 182 183 182 180 180 178 175 176 175 175 174 172 169 168 167 168 169 172 170 162 154 153 155 152 147 149 154 155 157 157 150 150 154 145 142 146 149 141 133 131 132 139 141 144 147 142 150 158 145
208 226 235 254 257 237 277 299 277 98 118 135 144 162 164 144 154 165 157 168 207 205 184 159 151 151 150 153 156 159 161 163 167 166 167 168 168 168 168 170 171 174 175 177 179 182 185 185 184 185 186 185 184 183 181 182 182 180 181 179 176 175 175 176 177 177 172 164 158 156 156 154 150 153 155 153 163 178 169 163 164 156 154 157 151 145 145 144 142 141 138 140 136 132 131 107 33
243 244 246 248 253 257 277 317 304 92 124 155 162 171 143 141 177 180 179 190 167 144 154 146 147 152 151 153 158 163 165 168 171 171 171 170 171 171 170 172 173 175 177 180 181 182 186 186 187 188 188 188 188 188 186 187 188 186 186 185 183 182 181 183 183 180 174 169 166 164 162 159 156 156 155 151 160 182 182 171 166 162 161 159 152 145 144 145 143 138 132 130 127 131 157 273 314
244 252 253 243 240 249 259 296 305 312 181 190 154 154 161 173 181 175 193 199 119 126 136 140 144 149 152 156 163 167 167 171 172 172 173 173 175 174 172 174 174 176 178 180 182 184 187 188 189 190 191 191 191 191 191 192 193 191 191 191 190 189 189 189 186 183 178 175 172 171 171 169 168 163 159 154 156 175 183 176 167 165 163 157 155 148 144 146 145 143 139 132 124 121 142 226 287
236 242 249 249 237 248 253 257 267 265 242 184 147 171 190 188 155 166 198 181 128 130 131 139 143 149 157 163 165 166 168 171 171 171 174 176 177 175 175 176 176 178 181 182 184 186 189 190 190 192 193 194 194 194 195 197 197 196 197 196 192 193 195 192 189 188 184 182 180 179 180 178 177 175 169 165 165 170 181 187 182 173 166 162 159 154 155 154 155 157 156 155 147 131 130 153 313
225 234 251 269 266 269 264 244 239 244 238 165 170 203 204 180 133 190 197 155 137 134 135 143 147 155 162 167 169 167 169 172 172 172 174 176 177 178 178 179 180 182 184 184 185 188 190 191 192 194 195 196 197 197 198 201 201 199 200 199 195 194 194 193 192 192 190 189 186 185 187 185 186 187 184 183 183 181 188 201 205 197 190 181 172 167 168 166 168 170 170 184 192 211 251 299 323
218 229 253 258 268 272 265 262 249 236 227 187 189 213 202 169 165 227 189 151 143 137 143 149 152 162 164 169 173 169 173 174 173 172 172 176 179 181 181 182 184 185 186 187 188 190 191 192 194 195 196 198 199 200 202 204 204 202 202 201 198 195 192 193 195 195 195 194 191 190 192 192 195 200 200 200 199 198 203 210 213 212 212 202 189 182 182 183 183 184 186 193 210 242 277 302 298
264 247 264 251 257 260 249 256 251 223 219 203 191 204 170 164 203 220 170 152 149 144 151 156 159 165 166 170 173 172 175 175 174 174 176 180 182 183 183 185 185 186 189 190 191 191 192 194 195 197 197 199 201 204 205 206 207 205 204 203 201 198 195 195 197 198 200 199 196 195 197 198 200 206 210 212 211 213 217 220 220 216 216 210 205 199 200 204 202 202 204 200 215 244 284 293 281
264 260 277 268 277 267 243 239 234 205 210 189 159 144 171 191 213 196 156 153 151 150 156 161 164 165 167 171 172 174 177 176 177 182 185 184 184 185 185 187 186 187 191 192 192 192 194 195 196 198 199 200 203 206 207 209 209 208 206 204 203 201 199 199 200 201 204 205 202 199 199 201 203 207 213 219 223 228 230 231 228 218 216 216 214 214 216 217 214 214 224 256 273 266 286 290 279
233 231 247 273 303 286 250 216 204 202 196 157 146 211 226 211 212 166 151 154 149 154 162 165 167 166 169 173 173 176 178 179 183 187 188 186 187 187 187 189 188 188 190 191 193 194 195 196 196 198 200 202 204 207 210 211 211 210 208 207 206 205 203 203 202 204 208 209 208 203 201 203 205 209 217 225 232 235 237 235 230 220 218 221 220 222 226 226 224 228 246 273 281 279 291 290 273
206 195 206 226 254 279 267 192 175 188 189 158 162 231 236 218 207 167 158 158 155 161 168 168 168 169 171 175 176 178 181 185 187 188 189 189 188 189 189 189 190 190 189 191 194 195 196 196 197 198 201 204 205 208 211 212 212 211 209 208 208 207 207 206 205 206 209 210 209 206 205 206 208 212 220 229 234 234 234 232 224 217 219 222 222 224 228 231 234 245 261 278 286 287 298 302 273
215 163 207 195 191 254 281 222 176 180 202 169 173 228 247 231 200 174 166 162 162 165 171 171 172 173 174 178 179 180 183 186 188 190 190 191 190 190 191 190 190 191 191 193 194 195 196 197 198 199 201 204 207 209 211 213 214 213 212 210 210 210 210 210 208 206 207 209 209 209 209 209 211 216 223 229 233 232 229 227 221 217 220 222 223 225 229 234 243 256 267 278 288 291 300 307 276
299 189 222 180 180 236 278 273 207 185 169 178 191 208 249 234 186 173 171 169 168 167 172 175 175 176 177 179 181 181 181 184 189 192 192 191 191 191 192 191 192 193 193 193 194 195 196 198 199 201 203 205 208 209 211 213 214 215 215 213 213 213 214 214 211 208 210 212 214 215 214 213 213 217 221 228 233 230 227 225 219 217 220 221 225 228 231 238 250 261 266 270 279 290 304 317 281
268 217 223 210 186 213 237 287 251 186 162 182 206 217 233 225 174 170 176 175 172 172 175 177 178 179 180 180 182 183 184 186 190 192 192 191 191 192 193 193 194 194 195 195 196 196 197 198 200 202 204 206 208 209 211 213 214 217 219 218 217 216 217 217 214 213 214 217 220 221 221 217 214 216 219 227 232 228 226 223 218 216 218 222 227 231 235 242 251 259 261 262 270 283 301 335 210
206 195 197 226 214 218 212 249 254 175 175 186 198 221 234 215 169 175 179 177 177 180 179 178 180 180 181 182 185 187 188 192 192 190 191 191 191 192 193 194 194 194 195 196 197 197 197 198 200 202 204 206 207 209 211 213 215 217 221 222 222 221 220 219 218 218 218 222 226 226 227 220 215 218 220 225 229 224 222 221 218 216 220 225 229 233 238 242 250 256 258 260 266 274 288 348 159
169 183 181 186 212 244 228 236 237 168 180 204 197 216 224 191 178 185 181 181 184 183 178 177 182 181 182 186 188 190 192 195 191 189 190 190 192 192 192 194 194 195 196 196 197 197 198 198 199 201 204 205 206 206 208 211 213 216 220 223 223 222 221 220 219 219 220 224 229 230 228 220 216 222 223 225 229 226 223 223 222 222 225 229 232 235 238 242 249 257 264 264 265 268 273 247 158
155 171 208 200 212 251 242 239 246 174 175 222 210 216 223 197 186 190 182 183 186 182 181 182 184 184 187 189 191 193 195 194 186 187 190 190 192 193 192 193 193 194 196 196 196 197 198 198 198 200 202 203 203 204 205 208 210 212 215 219 221 220 219 219 218 219 221 223 228 231 227 220 219 225 228 229 230 230 228 225 226 227 229 232 237 240 242 247 251 258 266 266 265 265 262 245 178
257 216 241 251 227 247 260 242 234 189 181 237 220 219 233 211 191 192 178 180 190 187 186 187 186 188 191 192 194 194 192 186 181 186 190 190 191 192 193 193 192 193 194 196 196 197 199 198 199 200 200 201 203 205 205 207 210 211 212 216 219 220 219 218 217 217 219 222 227 230 229 224 224 229 233 233 233 233 231 228 227 229 232 235 239 242 243 248 251 255 260 260 262 262 259 252 211
248 246 242 266 237 249 275 253 227 194 192 249 221 210 235 223 194 190 181 186 196 193 189 189 186 186 192 195 194 190 186 184 184 187 189 189 190 191 192 193 193 194 195 196 198 197 198 199 200 200 199 201 204 206 207 208 212 213 214 216 218 220 220 220 220 220 222 225 228 229 231 230 230 233 234 234 235 234 234 233 231 231 234 236 240 242 243 246 248 250 251 253 259 260 260 252 228
227 231 229 242 217 198 261 262 268 211 211 233 201 209 242 223 188 192 196 197 199 197 195 193 188 188 193 194 190 185 186 187 188 188 188 189 189 190 192 194 193 194 195 196 197 197 197 199 200 200 200 201 203 206 209 210 211 213 215 217 219 221 222 224 226 227 228 229 229 229 231 231 232 233 232 233 235 236 236 235 234 235 236 237 241 244 247 248 246 246 247 250 253 256 260 253 232
220 222 225 226 214 210 251 303 329 308 275 247 169 264 287 214 187 201 203 205 207 203 199 199 201 200 196 189 188 189 189 189 188 189 189 188 190 190 192 193 193 194 195 196 196 197 198 199 200 200 201 202 204 206 208 209 208 210 212 214 218 219 221 224 224 227 230 229 228 228 228 229 230 231 230 231 234 238 238 236 236 237 237 238 240 244 248 251 249 247 248 251 253 254 258 257 234
238 227 220 218 214 217 270 328 338 357 318 283 168 230 290 228 200 204 191 196 208 202 197 204 207 203 196 190 193 195 193 191 190 191 191 191 191 190 191 192 193 195 197 197 197 198 199 200 200 200 201 202 204 206 206 206 205 206 206 206 207 208 209 215 218 221 223 224 225 226 227 227 229 230 231 232 234 238 240 238 237 237 237 237 238 242 245 249 250 248 249 251 254 254 255 256 238
246 225 202 207 202 191 191 329 301 233 249 274 176 192 269 293 225 209 184 193 203 196 200 208 206 198 194 197 198 195 193 192 193 191 190 192 192 191 192 194 195 197 198 197 197 199 199 200 200 200 201 202 204 205 205 204 204 204 205 206 207 205 205 212 217 220 221 221 223 225 226 227 229 231 233 234 236 239 240 241 240 238 236 236 237 240 242 246 250 250 251 252 254 253 250 253 246
239 184 151 181 193 196 199 193 232 239 261 285 293 170 254 285 254 216 187 196 204 198 205 209 204 201 199 201 200 196 196 193 190 190 190 192 193 194 195 196 197 198 196 196 196 198 199 199 200 201 202 203 204 204 203 204 204 204 206 208 210 210 210 213 217 219 221 221 222 225 227 227 229 232 235 237 237 239 241 242 241 238 236 236 237 239 242 246 250 252 252 251 252 250 248 254 256
224 141 141 167 187 201 193 184 226 254 307 279 262 152 248 266 270 241 187 197 208 205 210 209 203 204 202 202 202 199 199 196 193 192 192 193 194 195 197 197 198 197 196 196 197 197 198 199 200 200 201 203 204 203 203 205 206 206 207 208 210 213 214 216 217 218 219 220 222 224 226 228 229 232 236 238 238 238 240 241 242 240 237 237 237 239 244 246 248 251 251 250 252 252 250 254 258
194 143 144 143 166 182 172 179 206 220 238 251 239 171 218 267 269 227 183 199 212 211 213 210 206 206 204 202 202 200 199 197 198 197 195 195 196 197 197 196 197 198 198 198 197 197 197 198 199 200 201 202 203 203 203 205 206 207 208 208 210 212 213 215 216 217 218 219 220 222 224 227 228 230 233 236 236 237 239 239 240 241 240 240 240 242 244 246 248 249 251 252 253 255 254 254 255
167 158 199 43 120 130 157 178 159 212 240 240 227 185 187 259 260 197 190 204 205 207 214 213 210 211 209 205 203 200 198 197 200 200 199 198 196 195 194 195 196 198 199 198 197 197 197 197 198 199 201 202 202 203 204 205 206 207 209 209 210 211 211 211 212 215 216 217 219 221 223 225 226 228 231 233 235 236 237 238 239 240 242 243 243 245 246 247 249 249 253 255 254 255 255 255 256
179 167 173 221 303 71 146 191 151 218 241 231 213 181 183 237 253 213 214 213 201 203 210 208 206 209 209 207 204 201 198 197 197 199 200 195 191 191 192 195 196 196 197 197 197 197 196 197 198 199 201 201 202 203 204 205 206 207 209 211 212 212 211 211 212 214 215 217 220 221 221 223 223 225 228 232 234 234 235 236 237 238 240 243 245 247 247 248 250 251 254 255 255 256 255 255 255
192 172 148 179 229 175 201 218 197 225 245 227 184 162 191 236 247 229 228 224 209 209 211 207 205 205 206 205 204 202 199 197 196 197 196 191 190 191 192 194 193 193 195 196 196 196 195 197 197 198 200 201 202 202 203 205 205 207 209 210 212 213 213 214 215 216 217 219 220 220 220 220 221 222 225 229 232 232 232 233 235 236 238 242 246 247 248 248 250 251 252 252 253 254 255 255 255
189 183 168 181 191 196 212 223 247 247 258 242 171 156 213 254 242 223 223 226 218 215 216 211 207 206 205 204 202 201 199 196 197 195 192 193 194 195 194 193 192 193 195 195 196 195 195 196 197 199 200 201 201 202 203 204 205 208 210 210 212 212 213 215 217 217 218 220 221 222 222 222 222 224 226 229 232 232 233 234 236 237 239 243 246 247 248 247 248 249 249 249 250 252 254 255 255
192 183 177 195 190 187 197 196 225 231 250 253 184 167 202 206 220 215 214 221 219 218 220 211 210 210 205 204 201 201 201 198 198 195 193 196 196 196 194 193 192 193 194 195 195 195 195 196 197 199 200 200 201 202 203 204 206 208 209 210 212 213 214 216 217 219 219 221 222 223 224 225 226 228 230 231 233 233 234 236 238 239 240 243 246 247 248 246 246 246 246 248 249 250 252 254 254
201 172 182 212 189 153 182 200 194 180 234 245 204 206 215 213 258 245 219 224 216 218 221 208 209 208 195 197 200 201 204 200 199 197 197 199 197 195 194 192 193 192 193 195 195 195 195 196 197 199 200 200 201 202 203 204 206 207 208 210 211 213 214 215 217 219 221 222 224 224 226 227 230 232 233 234 235 235 236 236 239 240 241 243 246 247 249 247 244 243 244 246 247 248 250 253 255
180 173 196 199 145 145 213 239 190 137 223 240 215 246 263 264 276 267 208 223 221 222 222 209 208 198 184 193 196 198 202 199 198 198 200 200 194 194 195 193 192 192 193 195 196 196 196 196 196 198 200 200 201 202 203 205 206 207 208 209 211 212 213 215 217 219 220 222 224 225 227 229 231 233 235 236 236 237 237 236 238 240 240 243 246 248 250 249 246 244 244 246 247 249 251 254 257
149 187 192 146 113 165 203 230 231 198 232 263 267 237 217 206 254 255 171 201 227 229 222 213 209 191 186 197 196 196 199 198 199 199 201 200 195 195 195 194 194 193 194 195 196 196 196 196 197 197 198 199 200 202 203 205 205 206 208 209 210 211 212 215 217 218 219 221 223 225 227 229 232 234 236 238 238 238 238 237 238 239 240 243 246 248 250 250 248 245 245 247 249 252 254 256 258
185 182 165 146 157 191 188 207 216 205 230 273 281 251 216 204 226 220 189 199 219 228 224 217 208 193 193 201 197 196 197 196 198 200 200 198 197 197 196 196 197 195 195 195 195 195 195 197 198 198 199 200 201 202 203 205 205 206 208 209 210 211 212 214 216 217 218 220 222 225 227 229 232 234 236 237 237 238 238 238 238 239 240 242 245 248 249 250 249 247 247 248 250 253 256 257 258
206 169 154 169 194 193 187 192 187 189 216 243 264 275 248 227 207 188 196 203 207 215 219 216 209 201 200 201 197 195 195 196 198 200 199 197 198 199 197 197 197 196 195 193 192 193 194 196 197 198 199 200 201 202 203 204 205 206 208 209 210 211 212 213 214 214 216 220 223 224 227 229 231 233 235 235 237 238 239 239 239 240 240 241 244 247 248 249 248 248 248 250 252 254 257 259 260
211 192 175 186 202 200 197 202 169 172 188 203 239 260 258 250 204 185 196 202 201 205 210 213 212 206 205 203 198 193 193 196 199 199 197 196 198 199 198 198 197 195 193 191 191 192 193 194 195 197 198 198 200 201 202 203 205 206 207 209 210 211 212 213 213 214 216 220 222 224 227 229 230 232 233 234 235 237 239 241 241 240 241 241 243 245 247 248 248 248 249 251 253 255 257 260 261
254 253 227 203 197 151 182 227 223 184 193 188 202 250 264 255 209 191 198 202 201 202 203 210 214 208 206 205 200 195 194 197 200 199 197 196 197 198 197 194 191 190 189 190 192 192 192 193 194 196 196 197 199 200 201 203 204 205 207 208 210 211 211 212 212 214 217 220 221 224 226 227 229 232 233 234 236 237 239 241 241 241 242 242 244 246 247 247 247 248 250 251 253 254 255 258 259